GFSSW_500_rhum_141.txt.gz
RH
13 12 10 11 12 13 12 12 13 12 13 14 14 13 13 12 11 14 12 15 24 32 34 36 35 34 34 31 25 23 25 27 24 20 18 19 20 19 17 16 16 16 15 11 10
21 20 16 14 14 16 14 13 14 16 16 19 19 20 18 17 15 15 16 14 14 26 32 36 42 42 42 40 36 32 29 31 21 25 26 26 25 24 23 22 21 22 23 19 14
37 33 32 25 22 21 22 20 19 21 26 24 26 28 28 26 22 18 20 19 19 20 33 35 40 48 48 49 46 42 39 31 32 32 32 32 30 29 29 28 28 25 26 23 17
64 62 63 54 40 37 36 33 34 41 43 38 40 43 51 58 47 40 30 26 23 24 31 36 39 47 50 54 54 50 45 43 38 38 39 39 38 37 36 32 29 25 27 27 26
83 91 92 87 75 67 63 59 58 64 61 50 51 58 64 53 49 66 57 42 28 24 26 36 41 47 53 54 57 59 54 52 49 50 50 51 48 45 39 37 34 37 34 26 22
83 87 96 93 93 83 82 87 82 79 71 64 61 60 59 56 52 60 65 62 53 43 40 42 47 50 53 56 56 61 65 63 62 61 60 62 59 56 45 47 45 31 22 20 19
79 85 89 76 93 76 82 90 84 90 90 82 75 67 53 32 34 48 56 61 70 66 59 62 57 54 56 53 56 57 64 64 66 61 62 65 64 56 50 36 30 28 24 19 16
55 58 81 67 73 60 62 81 85 87 77 62 79 63 20 16 18 39 64 65 70 70 67 65 61 61 67 58 55 58 65 72 50 61 54 56 52 48 43 40 33 24 19 18 16
28 30 69 65 84 58 34 24 46 58 57 34 50 46 8 12 15 41 57 61 66 69 68 59 60 62 66 66 63 60 64 61 64 47 65 65 60 47 38 31 26 22 20 18 16
25 21 21 85 97 86 48 50 21 32 34 22 12 12 9 10 24 46 58 62 64 66 62 57 53 53 57 56 63 58 49 60 76 70 62 58 49 42 35 30 27 24 21 17 13
17 17 21 28 56 28 27 35 28 20 11 12 12 8 9 7 22 43 52 47 49 62 59 59 51 52 45 52 53 62 66 69 72 63 62 56 50 42 37 33 30 26 23 19 14
17 18 19 21 19 18 25 20 39 21 17 15 13 11 7 7 16 46 54 47 42 45 54 50 47 28 41 41 53 63 64 72 64 67 65 58 44 43 44 36 26 18 15 13 12
23 22 21 22 22 18 25 24 63 51 20 35 24 18 8 7 14 16 43 56 43 37 36 44 28 28 25 31 46 67 69 74 67 65 66 59 51 46 40 30 26 15 11 9 7
23 24 23 23 29 25 24 22 41 68 79 22 63 50 13 9 8 11 23 32 50 48 42 40 27 18 17 19 35 60 49 73 68 62 67 60 52 33 30 25 18 11 9 7 5
19 18 21 26 25 30 26 23 26 41 99 88 42 47 29 16 11 16 32 30 33 28 25 30 20 14 9 8 29 31 61 71 77 74 64 60 54 54 28 20 13 9 7 4 5
15 15 15 18 21 23 27 32 30 64 96 78 61 72 46 27 23 15 16 23 25 18 26 24 19 16 11 14 28 54 68 78 82 79 70 61 47 30 21 17 10 6 4 4 4
11 12 14 16 17 19 26 32 91 61 41 72 63 83 68 66 61 58 27 24 27 22 21 34 30 21 16 14 29 46 69 88 75 69 64 56 47 27 22 16 9 5 4 4 3
12 13 14 16 17 16 19 30 79 72 52 56 64 97 100 75 43 66 35 38 38 24 28 25 36 24 20 34 35 50 74 82 76 76 66 52 39 23 21 13 9 5 4 3 3
8 9 12 16 20 20 20 30 33 64 71 45 43 66 67 30 76 86 63 64 57 40 50 48 56 24 37 36 52 48 71 80 77 70 61 50 34 32 23 11 6 4 3 3 3
8 7 8 11 16 23 33 38 28 29 89 69 97 95 82 37 85 98 98 77 63 57 69 83 69 33 38 42 50 65 76 85 78 69 55 43 25 52 15 7 5 4 3 5 12
9 8 7 7 7 10 50 44 25 28 88 80 75 96 85 68 87 99 97 88 84 92 87 69 71 49 46 48 66 80 86 86 84 69 56 39 44 26 13 6 5 4 3 6 26
10 9 7 6 6 6 9 26 23 23 35 100 64 91 96 95 98 100 97 100 96 87 68 73 87 43 71 46 78 78 88 88 91 71 60 29 26 21 10 6 4 3 3 9 33
11 10 8 7 6 5 6 8 30 27 28 76 100 93 91 95 96 99 99 100 94 82 79 100 83 62 50 60 66 79 84 97 93 76 49 31 22 10 8 6 4 3 6 16 27
13 12 9 7 6 5 5 5 14 28 31 32 49 100 100 100 92 100 99 99 99 97 95 100 89 85 91 57 65 90 90 100 84 72 56 31 15 8 8 6 4 2 15 26 30
12 11 8 5 4 4 4 5 7 30 38 44 67 95 100 100 98 98 92 100 100 90 100 92 78 100 96 83 78 91 94 100 88 70 61 20 12 11 8 6 3 2 10 25 26
11 8 6 4 4 5 4 4 5 12 36 46 99 65 85 99 99 100 96 100 99 100 99 97 98 100 100 98 90 85 94 99 88 49 32 14 12 11 8 6 3 2 7 26 34
7 6 11 4 4 4 3 4 4 12 23 38 50 65 82 100 100 100 100 96 98 100 100 99 95 100 100 97 88 81 100 98 78 47 16 13 12 10 7 6 4 2 3 20 27

GFSSW_500_rhum_144.txt.gz
RH
17 16 15 15 13 12 13 12 11 12 13 14 12 13 13 12 11 11 13 12 14 15 14 14 30 36 37 34 34 28 26 30 33 78 85 19 20 19 20 21 21 19 17 15 16
33 30 26 21 19 17 17 18 16 14 13 15 16 16 17 17 13 13 14 14 13 15 14 12 13 31 38 42 41 41 36 39 30 26 25 24 25 24 25 26 26 24 21 21 21
52 53 46 43 33 28 28 28 30 24 20 20 23 27 25 26 23 26 26 28 28 23 22 20 16 17 32 41 46 48 47 43 38 36 38 35 33 32 33 32 30 29 28 27 27
80 82 78 69 56 55 49 49 40 44 36 37 32 32 45 38 32 43 34 35 46 46 32 22 21 19 25 39 43 53 59 52 50 45 44 43 41 42 41 39 38 37 36 35 31
94 95 95 97 92 77 74 67 72 76 59 59 61 51 44 50 39 53 46 44 51 58 45 25 20 20 25 36 47 56 64 60 62 58 53 50 50 52 55 53 52 49 45 40 38
82 86 91 90 90 91 88 92 87 85 78 78 79 72 65 60 53 59 55 47 43 49 62 54 39 36 43 46 50 54 57 66 63 63 64 62 64 60 63 57 58 55 53 52 46
65 68 72 82 88 82 87 94 78 88 69 85 80 69 65 62 60 54 36 28 34 47 51 63 62 60 59 59 54 64 59 62 65 58 50 65 76 63 62 59 56 52 43 36 33
71 68 68 49 70 59 80 71 63 73 62 66 84 70 54 49 61 39 20 17 32 65 62 66 69 66 63 60 64 68 68 75 66 49 49 66 64 52 50 52 51 47 42 37 29
68 64 56 73 77 39 44 98 88 52 42 39 52 59 38 31 42 20 10 11 42 62 66 62 62 57 54 57 61 71 74 67 60 49 48 54 61 70 62 52 48 43 38 33 29
20 32 54 51 44 40 89 62 52 77 39 38 23 35 30 22 18 13 10 18 43 59 61 59 58 57 55 55 65 70 64 56 64 60 33 48 52 60 56 50 50 47 41 39 36
18 16 15 19 32 30 24 26 42 89 38 29 27 14 11 14 11 10 8 12 38 46 51 54 58 62 64 39 59 66 72 72 66 64 42 68 58 63 60 50 52 47 41 43 44
24 22 20 19 16 15 15 19 25 46 44 34 29 25 13 13 13 12 10 14 35 46 41 42 57 51 40 48 35 36 49 66 77 66 58 72 66 70 56 60 54 44 44 41 27
29 27 25 23 24 22 16 15 18 19 20 29 24 24 25 21 19 16 9 11 18 51 47 41 38 33 40 30 22 21 21 22 32 43 40 48 46 58 50 48 38 28 40 32 24
32 30 28 27 27 27 23 23 26 26 21 18 35 36 42 29 25 40 13 9 18 35 54 45 50 28 38 32 22 12 10 10 17 24 55 60 64 67 60 43 26 23 36 27 22
20 23 26 23 25 26 26 29 32 44 51 29 24 39 47 59 55 48 66 11 18 36 38 35 28 16 28 27 17 15 11 12 21 31 31 56 71 77 72 63 37 42 33 29 21
13 16 17 19 21 24 21 23 29 46 68 48 28 27 35 33 60 87 73 38 20 20 22 31 23 15 26 17 21 16 15 12 22 33 26 46 61 79 80 61 53 44 23 21 15
8 9 11 14 16 17 17 17 28 42 47 48 34 25 35 32 49 73 76 42 28 40 35 23 19 17 16 20 23 25 20 19 29 39 61 41 53 73 57 57 51 40 25 15 12
7 7 8 10 12 15 18 21 27 20 27 44 55 31 32 33 48 88 80 69 53 58 84 49 25 21 16 20 23 25 34 34 36 59 91 74 64 75 67 49 39 38 25 25 12
7 8 8 8 9 15 21 27 25 17 20 30 61 57 29 32 36 61 75 73 80 62 81 62 52 40 26 30 44 35 37 43 57 67 63 77 84 91 64 52 45 31 31 21 7
10 9 9 9 9 10 13 21 25 20 19 25 45 46 49 76 46 84 100 94 91 91 100 94 87 54 48 46 54 52 40 53 63 67 83 80 88 88 60 51 46 30 24 10 5
11 13 11 9 10 9 8 11 15 17 18 30 45 36 63 100 87 68 82 78 83 96 99 100 96 79 61 63 76 62 50 57 70 76 85 86 89 86 72 49 38 20 14 6 5
14 17 12 12 12 10 9 9 11 18 25 57 40 35 74 99 100 100 68 84 91 100 81 100 98 95 69 89 72 39 50 62 81 88 88 94 78 83 60 46 43 31 10 8 5
18 17 18 15 17 12 10 8 8 9 17 30 43 25 30 94 100 97 83 100 99 100 94 96 96 99 91 60 62 73 67 68 88 92 86 95 99 67 53 47 45 22 10 6 4
58 66 62 18 14 13 11 8 7 7 8 17 49 32 31 35 99 100 98 100 97 100 94 99 100 96 96 100 67 74 77 84 93 88 100 96 69 87 58 52 27 11 8 6 5
67 73 66 43 18 12 10 9 7 6 6 7 39 43 29 38 38 96 99 100 100 98 100 100 99 98 97 96 86 71 89 100 89 86 91 97 90 66 57 30 14 11 8 6 5
55 64 74 100 29 23 13 10 8 6 6 6 14 16 21 27 28 30 78 100 100 99 100 98 95 98 98 97 98 96 88 100 94 83 88 100 67 76 30 15 14 11 8 6 6
40 50 56 44 36 22 10 8 7 6 6 5 6 27 52 25 38 40 44 83 99 100 100 100 100 96 99 100 99 81 91 94 97 85 93 99 62 50 31 19 14 11 8 8 7

GFSSW_500_rhum_150.txt.gz
RH
17 9 9 10 11 11 12 19 20 15 10 9 10 10 13 11 12 12 14 15 14 13 12 12 12 12 14 14 16 19 26 38 34 30 25 22 22 26 20 19 25 37 24 18 19
34 19 12 12 13 14 16 20 31 28 24 14 11 14 15 19 18 17 20 27 24 20 19 18 17 16 15 14 16 19 27 32 38 38 36 32 28 27 28 24 28 28 28 24 22
48 35 26 19 24 30 28 30 37 32 28 23 19 22 21 31 29 28 30 34 33 34 34 30 29 32 25 22 20 20 26 28 32 36 43 47 47 44 37 38 36 30 24 30 29
70 65 64 51 61 58 54 50 58 52 48 39 34 36 34 40 49 51 52 50 45 44 41 41 38 39 42 42 34 25 38 32 52 54 58 63 59 55 51 47 44 40 41 37 34
82 81 82 79 67 71 72 71 77 72 66 57 46 51 50 54 58 55 53 54 58 59 64 54 49 46 50 50 45 38 30 40 57 62 70 76 71 69 65 61 56 52 48 45 45
89 91 89 90 86 78 81 83 82 81 75 67 61 57 60 67 62 57 63 70 63 55 58 58 46 39 40 51 49 44 29 31 34 52 65 66 61 66 69 69 66 60 55 53 45
87 80 77 66 78 98 92 82 75 82 93 64 64 61 62 66 58 65 66 68 59 52 50 42 26 22 34 46 50 59 58 45 39 46 47 60 62 68 68 68 65 49 46 42 36
60 49 62 83 73 65 67 80 72 71 70 67 70 63 67 59 53 59 57 63 46 50 45 26 16 25 39 50 57 52 55 57 55 47 49 61 68 66 71 69 59 39 34 28 33
14 12 13 15 35 55 69 76 83 77 70 64 56 59 72 66 47 45 54 45 30 43 23 13 12 20 41 48 51 60 58 53 53 51 52 61 71 66 63 57 40 30 23 30 47
22 22 13 12 12 13 15 25 47 70 53 65 62 52 65 70 56 41 36 36 23 22 15 12 12 30 39 41 47 43 47 50 48 49 44 54 58 60 54 27 15 9 8 12 42
28 24 24 34 20 16 15 15 15 16 30 41 40 55 50 79 58 52 37 25 23 12 13 14 19 36 39 42 46 45 50 52 35 29 24 21 30 64 47 9 6 7 5 6 36
32 43 47 50 54 44 36 27 22 20 18 16 21 24 41 46 47 45 29 20 15 14 14 12 13 23 36 40 42 49 52 41 30 25 20 21 29 39 31 13 9 6 5 7 34
45 49 55 61 62 61 50 47 46 36 29 26 20 19 17 20 27 36 49 32 28 21 15 13 11 23 37 40 39 57 55 46 42 29 24 22 17 22 17 10 7 7 9 10 30
70 79 79 78 74 70 63 58 62 59 55 45 35 27 23 18 18 19 36 55 48 32 26 18 27 13 14 35 49 42 43 48 51 47 36 32 22 28 16 15 10 10 10 12 28
90 92 86 84 78 73 65 62 58 49 50 41 36 38 31 28 24 21 24 22 30 38 38 32 32 38 16 14 32 45 51 48 38 44 36 31 39 12 25 12 10 11 10 19 31
34 19 21 20 28 27 27 29 28 27 41 40 35 34 38 35 29 28 27 30 26 29 39 40 51 38 46 18 18 32 34 41 32 25 17 26 46 11 14 13 11 10 11 22 19
37 66 58 19 9 9 10 11 14 23 40 33 35 35 36 41 42 31 29 30 40 27 22 43 56 57 50 48 36 23 22 21 29 29 18 44 34 15 16 18 18 19 23 22 20
27 23 19 13 5 5 6 7 9 10 21 36 19 29 30 30 35 42 31 29 36 35 32 31 33 48 47 53 57 58 40 50 41 29 18 42 27 23 24 28 27 26 26 35 42
6 6 4 6 5 5 5 6 5 11 14 14 13 17 19 20 26 30 35 31 28 28 31 45 36 63 78 71 59 58 46 69 70 63 46 42 39 32 33 39 38 41 44 48 59
9 8 7 7 6 6 7 5 4 4 5 6 8 13 16 18 22 22 25 30 33 27 28 46 46 50 80 99 84 78 62 70 68 62 62 57 67 57 50 54 56 56 62 65 65
17 15 12 16 15 14 11 8 6 4 4 5 6 8 12 20 22 24 25 28 37 37 41 53 62 45 46 54 76 98 89 87 99 97 84 82 76 74 79 72 58 64 76 78 63
18 19 17 24 26 22 18 14 12 10 7 6 5 6 7 11 15 36 38 28 57 71 87 85 99 80 53 67 95 100 99 100 87 88 98 99 83 84 73 63 68 73 82 66 54
27 25 27 28 36 34 32 26 19 16 12 8 6 5 7 8 20 46 67 87 42 56 48 52 95 91 100 97 90 92 90 100 99 96 88 100 84 100 90 94 89 71 72 65 72
64 60 54 53 52 53 53 48 38 26 17 11 9 9 10 11 22 36 47 93 100 89 78 88 98 96 92 98 97 94 100 100 100 93 91 94 95 92 100 99 86 83 74 75 74
61 46 17 34 61 76 82 64 56 45 31 15 11 10 9 11 16 26 43 69 96 100 100 100 88 96 100 100 99 95 98 100 95 93 97 98 98 89 84 73 76 82 84 82 81
6 6 7 7 11 65 74 88 78 59 45 29 16 12 10 11 13 27 43 84 94 95 100 100 100 95 96 100 99 100 95 100 100 100 98 100 90 100 98 98 91 91 86 82 84
28 25 22 17 19 74 70 68 67 71 53 37 22 18 17 13 11 14 41 51 75 100 99 97 97 96 92 100 100 96 75 100 92 96 100 100 97 98 96 96 95 92 86 83 89

GFSSW_500_rhum_153.txt.gz
RH
8 14 44 40 32 12 7 8 9 9 11 22 22 17 10 10 10 11 11 12 13 14 14 12 11 10 11 11 12 16 21 24 26 27 26 29 28 27 26 24 23 21 21 26 22
30 54 57 50 39 41 16 8 8 9 13 22 30 31 28 17 13 14 17 15 19 19 22 25 17 16 15 14 14 15 15 17 19 22 25 30 33 33 33 32 32 33 30 32 38
58 62 61 61 51 46 36 17 14 13 18 24 30 33 29 28 19 20 28 25 25 27 30 29 30 30 26 26 25 22 20 19 21 28 39 47 46 47 47 47 47 44 39 37 33
64 63 65 62 66 59 46 33 34 30 38 38 36 45 48 36 34 37 37 41 38 33 35 48 42 39 42 37 35 34 30 27 25 30 35 50 60 61 55 51 50 49 51 50 48
78 70 69 68 73 76 71 54 57 51 55 60 55 65 57 56 45 44 45 47 47 37 36 42 50 50 46 47 47 50 46 38 38 43 38 46 55 52 54 51 39 46 56 59 61
74 68 62 66 81 85 86 76 72 66 64 68 61 69 70 68 56 52 54 52 51 47 44 55 51 50 48 46 39 46 47 48 43 46 41 44 39 39 48 38 38 44 54 61 65
86 78 76 87 87 82 91 80 76 80 68 70 72 74 75 71 65 69 65 50 51 50 44 45 45 45 41 27 20 25 34 43 50 49 51 40 34 37 40 33 43 51 54 56 61
86 79 77 84 88 89 80 75 70 84 74 78 79 71 73 66 62 67 63 60 54 51 54 40 48 43 26 15 20 37 44 50 60 56 58 55 52 51 50 47 51 50 52 50 50
55 38 21 20 40 53 39 40 68 72 65 69 71 67 64 59 62 67 61 51 49 58 38 42 43 24 15 14 27 41 49 52 60 54 60 55 56 52 50 54 54 45 39 40 47
14 13 12 12 17 16 13 13 14 22 40 64 69 72 62 51 47 64 63 45 47 49 28 32 29 15 11 15 39 42 32 41 48 52 52 54 52 46 38 34 24 29 30 22 19
18 21 26 36 20 15 28 20 14 14 13 15 28 38 51 49 50 46 56 59 48 40 28 23 18 16 14 18 38 42 45 50 53 54 48 48 46 34 26 23 16 16 8 6 14
23 33 39 34 46 60 56 28 23 34 26 17 15 17 15 26 29 46 47 55 48 42 25 20 12 11 14 19 26 38 42 55 60 54 52 43 42 32 27 20 14 9 8 8 13
22 42 60 72 48 45 43 43 52 51 57 53 39 32 26 22 19 19 22 31 40 43 25 15 17 20 13 14 22 42 40 52 55 56 46 36 26 24 22 16 14 11 11 11 16
43 44 45 38 46 33 34 35 41 47 59 48 56 47 45 41 32 26 21 19 20 36 54 34 29 22 19 17 13 18 46 47 60 62 44 41 23 31 31 22 18 15 15 14 14
66 53 50 62 47 59 84 68 64 74 64 50 44 44 46 50 48 39 34 28 23 19 35 44 49 38 26 26 37 18 21 43 61 56 47 38 32 16 22 16 18 18 17 16 17
98 98 89 82 69 92 98 100 98 90 64 56 47 50 47 45 46 47 44 36 32 30 23 18 22 31 42 43 44 55 41 18 32 53 48 42 43 12 12 14 20 20 18 17 16
100 99 98 100 79 59 65 37 30 70 49 46 46 48 49 48 45 43 41 40 40 34 30 32 29 28 28 38 51 60 83 64 32 40 20 28 38 16 12 14 14 15 20 23 26
100 100 100 100 100 99 98 95 62 56 54 56 47 45 45 43 43 39 36 38 39 44 40 33 31 41 34 29 41 71 70 81 99 87 45 24 17 15 16 16 17 23 33 34 36
100 98 100 96 67 41 31 18 71 57 59 57 52 34 43 43 28 28 30 26 30 32 39 41 34 46 53 53 53 46 53 84 100 98 76 54 36 23 25 40 36 40 51 51 51
100 98 96 100 100 100 74 72 64 54 62 60 48 37 39 32 21 22 24 28 28 28 29 33 38 34 32 39 49 47 74 98 87 86 82 61 53 42 40 50 50 54 58 65 64
58 74 71 34 25 35 48 66 58 42 24 13 24 16 21 18 9 10 15 18 25 30 43 58 57 41 41 38 48 74 96 100 100 97 97 87 72 65 58 64 70 69 82 78 68
13 11 14 15 17 15 13 17 16 12 8 6 6 6 6 5 5 5 7 10 23 76 77 52 83 90 59 52 80 69 79 68 86 75 99 99 70 72 84 82 82 85 84 83 70
16 16 15 18 22 15 14 13 12 11 14 13 9 8 7 6 6 5 5 6 23 18 32 58 98 100 98 100 98 100 99 100 100 100 86 100 68 91 95 96 99 100 89 85 91
34 30 27 20 19 17 16 15 18 18 20 24 19 16 14 12 10 7 10 19 21 34 80 72 82 62 89 83 90 94 100 100 99 97 98 95 100 96 89 96 100 97 94 99 100
91 81 68 41 32 26 24 22 22 24 24 25 26 27 23 20 15 11 9 10 30 39 81 100 94 94 77 88 66 68 66 100 100 98 100 92 100 99 98 100 100 92 96 98 97
97 80 74 82 78 77 72 64 59 54 50 45 46 41 47 40 27 19 11 8 9 18 42 70 97 100 100 92 100 100 97 88 100 100 100 98 80 88 100 100 100 100 98 100 96
29 24 27 16 13 17 19 32 26 31 28 29 43 46 51 35 33 19 30 30 31 35 62 100 100 97 98 100 100 99 64 90 99 99 100 79 94 98 100 100 100 98 96 99 100

GFSSW_500_rhum_156.txt.gz
RH
9 9 9 10 11 9 26 37 32 17 7 6 7 8 12 25 27 27 15 11 9 10 10 13 13 13 10 9 10 11 11 14 18 19 22 22 23 26 26 26 26 27 28 28 29
41 46 27 8 10 44 49 51 43 39 37 13 10 8 13 24 30 30 29 27 18 14 14 16 18 21 21 16 13 12 11 12 13 15 18 23 25 39 43 44 41 40 39 38 39
45 48 25 21 45 61 56 49 50 49 42 35 21 15 17 23 32 38 37 36 30 25 25 26 25 25 24 24 23 19 18 17 17 17 17 22 30 46 59 58 52 51 52 50 49
46 48 37 33 54 60 55 53 50 58 51 44 34 31 41 40 42 48 50 45 38 34 32 38 35 31 34 40 38 34 33 32 28 24 23 24 26 32 49 58 51 51 54 58 57
37 43 56 61 50 57 64 53 55 55 71 60 49 54 57 62 57 60 61 55 46 43 42 42 44 44 44 40 40 46 38 37 40 41 40 36 34 34 39 38 41 42 46 46 50
54 59 64 67 66 66 67 66 62 66 73 76 63 61 60 74 68 70 70 62 51 55 55 46 50 44 45 45 42 46 42 41 41 42 42 41 40 36 33 32 34 43 43 46 51
74 77 70 66 70 70 73 72 66 79 71 68 70 71 75 78 77 71 70 66 60 59 58 50 48 41 46 44 43 40 31 23 20 25 30 33 34 36 33 33 38 44 45 50 57
83 81 80 78 74 76 82 74 80 84 74 77 73 74 83 85 85 79 71 64 56 54 63 59 48 38 44 45 43 33 16 17 31 31 30 24 34 55 52 50 50 53 53 56 58
91 94 90 81 78 74 72 68 78 82 83 71 70 73 75 82 94 76 63 59 59 54 51 53 51 46 45 44 37 20 16 34 41 29 22 32 35 42 35 36 44 52 53 56 56
90 93 84 67 62 65 62 32 26 43 59 38 43 64 67 73 81 86 78 57 49 53 42 42 52 35 44 35 18 15 14 23 38 42 30 42 42 32 30 29 36 42 45 45 41
100 97 77 41 25 34 19 14 16 19 21 22 26 18 22 36 62 86 60 52 49 61 52 40 38 29 27 28 18 13 14 33 58 52 44 56 45 27 27 26 28 32 32 30 33
100 95 75 31 24 14 14 14 20 24 29 31 28 26 15 14 16 26 47 48 50 52 52 52 45 34 25 18 16 15 19 43 50 54 46 60 52 40 31 25 23 21 18 17 19
98 90 78 41 20 18 18 24 32 47 55 46 43 45 36 35 24 19 18 18 32 39 39 33 39 39 27 20 14 12 14 38 33 44 44 50 42 47 37 26 22 20 20 18 15
98 90 78 67 52 24 20 22 28 40 61 52 52 53 55 54 52 51 37 29 23 20 20 20 24 38 29 19 17 17 26 15 22 38 39 45 25 50 41 32 26 25 22 20 17
100 93 89 70 67 52 50 39 40 65 65 55 45 41 41 42 48 51 51 49 48 38 27 26 23 27 44 34 33 29 37 32 26 18 22 28 29 18 38 37 41 40 32 21 16
98 99 100 98 88 97 98 96 90 97 75 56 46 53 54 50 50 50 53 54 55 66 56 41 31 24 22 37 58 53 48 54 44 47 28 20 32 18 24 30 37 38 31 24 20
100 93 96 96 100 100 100 100 100 91 63 64 58 58 64 67 66 66 62 58 56 51 54 50 45 36 33 31 24 26 29 40 60 63 40 46 42 25 23 22 26 30 26 25 21
100 100 100 99 100 100 100 100 99 57 60 74 59 59 62 61 59 60 57 54 54 50 48 47 44 42 39 39 42 49 49 42 56 73 69 71 48 37 34 26 23 26 21 22 31
100 99 99 100 100 100 100 100 81 54 61 69 73 68 67 66 58 56 54 49 46 43 43 39 40 40 42 49 64 62 59 67 90 76 67 49 46 50 44 52 67 55 35 36 45
64 96 98 100 100 100 100 93 68 55 66 74 82 89 77 84 70 57 51 43 36 32 34 32 50 43 34 39 54 70 78 76 82 88 82 53 45 41 42 56 65 65 58 54 56
41 63 74 100 100 99 94 77 75 74 84 82 73 73 76 74 80 68 48 32 30 29 24 34 53 45 44 41 40 46 48 49 56 83 71 70 61 59 63 75 79 76 71 79 88
19 27 41 64 84 98 81 72 80 79 85 84 82 78 66 53 54 47 44 19 20 30 20 46 59 47 56 78 75 75 98 93 99 92 100 100 58 60 70 78 90 87 94 97 98
16 17 23 25 32 36 44 63 59 71 67 44 46 58 44 28 17 15 11 10 6 9 20 45 41 85 100 83 59 74 100 100 98 84 94 97 60 61 69 70 75 96 94 99 92
27 20 17 18 18 17 18 19 16 15 17 18 16 16 17 15 15 11 8 8 8 11 13 32 84 68 38 56 81 95 100 99 99 100 92 98 100 93 77 100 100 100 100 95 100
98 72 30 20 19 15 15 14 15 14 13 14 13 13 15 20 21 16 15 15 14 12 10 24 50 50 57 54 60 49 42 55 94 86 92 72 100 70 100 99 97 95 95 98 96
100 96 78 80 43 34 29 21 24 23 24 21 19 16 24 24 20 22 29 30 28 21 13 10 29 31 65 100 100 100 89 57 65 71 84 100 92 100 100 98 100 100 90 94 94
97 96 89 92 87 98 91 90 84 82 64 51 42 38 36 26 48 48 42 39 41 35 28 28 17 13 28 72 94 87 68 100 96 100 100 99 90 100 100 100 100 100 100 100 100

GFSSW_500_rhum_159.txt.gz
RH
27 36 47 49 46 14 11 9 9 12 23 33 37 29 13 7 8 8 17 25 28 26 23 18 11 10 11 12 12 10 8 8 11 13 14 16 18 21 21 22 28 35 38 39 39
14 36 52 52 50 44 41 31 9 27 42 39 40 43 38 29 20 10 14 25 29 32 33 26 17 14 14 15 17 16 16 12 10 11 13 16 18 21 21 24 26 30 35 41 45
31 48 50 50 50 45 43 16 35 45 48 45 45 43 43 38 32 25 18 19 31 40 44 36 28 23 23 23 22 20 19 17 16 13 13 15 16 18 19 21 26 30 28 29 39
57 46 51 52 47 48 47 29 41 51 47 42 41 43 49 44 42 43 37 35 41 51 52 45 39 38 34 34 30 26 26 26 23 20 20 21 21 23 24 26 30 33 33 41 49
54 51 46 59 45 41 47 53 39 41 46 44 45 50 56 62 57 49 48 47 51 57 59 54 47 46 46 41 39 38 34 38 37 36 35 33 33 33 34 34 35 35 36 47 49
62 56 71 69 60 54 47 55 53 45 46 47 54 55 58 78 68 59 59 57 57 57 69 67 59 58 56 53 46 40 42 44 44 42 39 37 37 26 33 36 37 36 33 33 45
74 78 80 74 74 68 67 68 59 56 56 63 64 56 68 76 71 69 69 71 64 69 60 64 67 58 57 53 46 45 42 45 49 42 33 23 16 20 24 28 35 36 37 42 44
77 79 78 81 78 76 72 72 69 65 62 62 61 60 75 71 70 71 73 78 80 79 64 62 63 59 59 55 46 44 40 46 46 25 15 12 18 28 27 22 26 37 45 50 51
85 76 84 85 85 84 82 80 75 75 63 62 58 64 81 76 70 74 72 80 86 70 64 56 54 55 54 48 45 43 40 43 31 18 13 13 23 31 27 22 23 26 42 44 46
80 88 83 86 90 89 84 82 80 76 65 62 58 65 71 67 67 66 71 74 84 88 58 60 54 42 51 43 37 36 44 37 23 17 17 21 30 32 26 23 22 24 34 34 41
96 93 90 96 100 92 96 93 78 69 62 63 49 33 45 37 29 47 60 72 80 85 84 51 55 53 44 40 36 31 34 22 15 16 16 27 25 25 26 25 29 32 32 34 36
100 100 100 99 93 97 94 91 88 62 53 49 34 30 19 20 22 16 18 22 35 76 69 64 46 62 52 46 38 32 24 18 18 16 16 29 27 22 20 25 31 33 36 36 34
99 100 98 99 99 99 100 96 84 64 49 38 29 29 19 22 27 23 19 18 16 17 31 42 41 53 52 47 40 35 26 16 14 21 20 18 17 22 25 28 32 35 34 32 29
94 96 100 98 96 99 100 98 91 74 51 48 30 30 33 40 45 43 41 41 39 31 23 20 18 26 38 39 45 38 35 23 20 16 15 21 18 23 25 27 30 35 36 30 27
96 88 94 100 98 99 98 100 96 88 59 49 42 37 34 39 51 53 46 52 66 63 71 63 47 31 24 21 24 28 47 36 27 23 22 19 18 16 23 24 34 42 49 44 39
100 96 94 97 100 99 99 100 97 95 76 62 51 45 40 41 53 58 54 49 52 52 52 58 59 60 66 40 30 26 27 50 65 53 34 33 36 22 25 25 34 44 49 52 47
100 100 96 100 100 100 100 100 100 92 62 64 63 63 65 65 66 72 69 73 86 84 66 61 56 56 59 82 88 59 32 30 27 30 37 46 49 37 36 37 42 44 39 37 39
100 100 100 100 100 100 100 100 99 70 65 82 65 64 70 75 75 80 86 84 78 88 97 93 82 72 62 56 65 94 92 74 47 40 30 26 27 26 28 32 43 54 63 64 59
74 100 100 100 100 100 100 100 74 66 73 76 78 81 80 80 82 80 81 86 83 65 68 77 86 83 78 64 69 72 76 78 79 77 70 57 46 40 38 36 35 44 57 62 63
10 14 33 81 100 100 100 90 70 62 70 67 82 91 86 88 93 82 70 67 82 69 77 58 73 71 64 59 57 78 70 97 100 99 99 62 58 45 48 50 52 51 54 61 66
10 10 12 16 32 78 93 76 78 80 84 89 92 96 93 87 90 97 87 77 71 94 88 61 68 65 64 59 52 70 91 70 82 95 95 78 59 50 52 58 57 58 62 72 76
55 37 21 15 17 22 34 34 77 78 88 100 91 85 89 93 90 86 80 76 90 88 50 90 91 69 33 48 59 45 63 83 97 89 86 75 45 49 54 66 75 83 82 72 64
96 80 59 26 19 16 18 24 31 42 76 88 92 89 88 90 90 91 88 74 40 20 13 41 50 59 54 99 73 88 86 100 100 100 92 96 62 65 64 68 75 83 90 84 85
44 95 91 68 30 22 17 18 23 30 37 48 56 59 53 62 49 59 59 37 19 16 16 19 20 36 44 49 40 44 84 100 100 94 74 97 75 93 90 99 100 99 86 86 90
93 68 56 87 85 48 23 19 19 21 23 26 27 22 22 20 22 42 24 22 21 20 20 22 47 29 16 16 48 64 28 57 69 60 67 71 66 75 91 100 94 87 80 74 97
100 97 54 25 33 93 87 42 22 19 19 18 18 25 31 22 27 27 25 24 24 25 27 41 23 15 13 10 27 43 40 45 49 43 73 85 56 56 100 90 94 100 99 99 96
99 94 100 73 67 80 78 85 80 69 29 20 19 25 21 21 30 22 21 19 19 22 24 29 33 46 27 32 31 25 15 44 100 98 91 72 67 94 98 100 95 95 95 98 100

GFSSW_500_rhum_162.txt.gz
RH
44 30 15 9 26 25 50 50 48 43 21 13 9 14 16 26 33 32 21 9 10 18 22 27 27 27 21 11 10 9 10 10 9 9 9 10 15 20 26 28 30 32 34 36 38
48 52 42 31 15 34 44 50 52 49 47 36 17 20 28 37 36 35 30 30 26 16 19 24 30 32 29 20 14 12 13 13 13 12 11 9 9 11 15 18 23 26 29 34 41
63 57 58 60 57 37 41 50 52 47 46 26 36 38 39 39 34 32 34 35 35 31 23 25 30 37 36 30 23 20 19 19 18 17 14 13 13 13 13 16 18 19 23 27 27
66 62 63 68 66 57 51 54 51 50 44 29 35 47 45 38 32 30 33 36 45 42 38 40 42 43 43 35 31 28 24 26 24 21 19 19 17 18 18 21 22 24 27 29 31
67 60 56 58 57 61 58 51 58 46 43 48 35 36 35 39 40 43 43 52 54 48 51 50 54 53 50 46 42 39 37 37 31 27 27 28 26 26 29 31 31 33 36 37 38
68 62 57 55 61 55 50 61 63 55 42 47 51 49 37 42 47 48 52 59 66 58 59 55 56 58 62 59 54 51 51 51 48 43 39 41 37 37 34 38 37 39 36 40 40
64 64 65 70 69 70 68 68 65 60 56 59 62 49 49 61 55 53 54 61 63 68 62 66 69 68 64 68 61 59 55 47 47 51 51 48 36 42 37 35 26 23 34 38 36
53 52 60 56 70 72 74 68 67 64 67 60 58 57 58 61 50 52 59 62 63 66 67 75 80 70 60 60 58 62 55 52 50 51 47 47 39 35 26 23 25 31 37 44 47
54 57 48 53 47 61 69 74 74 72 64 64 61 60 60 62 60 63 62 63 66 70 71 82 80 63 57 57 55 52 56 50 46 43 41 42 30 20 27 32 32 28 32 46 46
56 73 65 54 49 49 60 73 66 76 75 74 72 65 66 64 54 60 69 71 67 68 68 81 86 59 60 51 42 45 49 38 42 43 41 31 23 20 27 30 27 26 29 39 44
64 73 93 82 74 74 74 71 79 71 72 72 70 66 67 67 60 51 65 68 67 70 73 70 78 93 86 70 47 44 45 34 28 36 27 20 16 16 19 22 22 25 29 35 39
70 80 92 98 97 96 88 96 86 79 60 77 74 61 71 64 62 42 44 42 36 48 62 64 70 76 77 67 66 51 45 42 32 20 24 19 16 16 18 23 21 25 32 37 40
76 78 82 88 88 91 85 90 88 83 71 67 77 70 71 60 50 29 23 23 20 17 20 22 27 55 64 59 56 53 52 53 42 33 23 21 21 20 20 20 22 28 37 40 46
96 87 97 100 90 94 96 92 90 85 75 62 75 69 64 61 50 32 21 19 22 22 21 18 18 17 19 30 48 52 50 43 40 40 32 24 19 19 21 26 26 31 36 46 58
94 90 92 92 93 94 94 92 95 90 88 66 59 61 62 61 52 38 29 28 31 40 42 38 41 40 35 26 22 20 22 27 29 30 33 31 25 22 20 20 21 22 27 35 46
96 94 96 98 95 96 98 97 97 94 72 65 63 63 64 63 59 50 39 34 35 45 54 63 67 82 91 90 78 53 39 30 27 24 32 37 38 26 26 22 27 33 36 34 34
100 99 99 97 99 100 98 100 100 86 67 71 66 67 76 76 76 75 70 57 52 68 91 93 82 83 88 86 82 89 90 69 66 42 33 36 31 29 32 32 40 42 45 47 52
95 99 99 99 100 100 100 100 96 56 66 85 84 79 80 79 86 90 82 86 98 99 95 95 98 99 99 96 92 89 92 95 89 100 98 61 41 33 29 29 29 30 31 32 37
21 40 91 100 100 100 100 100 67 59 68 76 100 100 93 95 100 100 100 100 100 100 95 90 97 100 100 99 98 100 91 94 92 84 78 67 50 56 53 50 50 50 47 44 43
8 10 15 28 35 86 100 92 65 60 62 73 80 89 93 100 98 100 100 100 100 100 100 96 90 100 100 99 99 98 100 99 97 100 100 58 56 51 49 48 54 57 61 60 58
22 12 9 10 12 16 19 34 75 89 85 92 79 92 79 84 88 100 100 100 99 94 89 86 92 91 97 100 93 95 96 100 100 98 99 81 61 66 62 56 66 75 78 72 66
82 69 49 22 14 12 12 12 12 16 38 84 88 90 98 100 100 100 100 100 98 93 74 85 87 85 92 100 96 83 96 83 95 90 99 98 40 61 59 58 66 70 76 78 69
59 97 78 83 57 37 29 19 16 16 15 17 40 72 95 100 98 99 100 100 100 100 99 99 93 86 81 94 100 99 87 62 63 92 79 86 48 65 76 69 82 94 94 88 79
89 100 100 70 84 95 85 55 25 19 17 17 21 34 54 73 96 92 100 91 92 100 98 94 84 77 71 73 90 97 99 100 100 100 94 100 72 73 89 93 100 99 88 86 79
96 83 84 79 26 41 65 99 84 64 44 21 20 21 29 37 42 55 79 83 86 85 93 95 80 74 63 71 62 60 54 62 95 92 82 83 100 60 82 87 88 79 77 76 74
100 96 97 95 69 46 38 21 48 100 60 42 25 24 24 27 30 30 26 25 62 64 76 66 78 77 66 62 52 55 54 43 37 34 54 31 28 61 54 44 33 37 43 46 54
85 95 100 100 77 70 31 41 65 98 93 89 38 27 25 25 24 23 22 22 21 28 36 35 47 51 61 48 46 43 40 19 16 18 26 27 13 40 77 64 58 65 63 70 76

GFSSW_500_rhum_165.txt.gz
RH
35 29 32 42 45 37 26 13 19 20 42 40 43 39 36 24 9 15 23 23 27 23 15 12 19 21 14 13 17 12 10 11 51 16 26 11 17 21 26 31 32 31 29 30 30
27 42 49 49 46 46 49 45 33 32 28 27 43 50 43 38 26 23 29 26 29 32 32 30 20 26 28 28 28 24 17 18 19 12 12 13 13 12 21 27 28 28 30 31 31
31 33 44 45 60 64 59 56 57 56 44 49 51 47 43 36 34 26 33 25 23 25 27 35 35 27 26 25 30 28 23 19 18 16 15 16 16 18 17 15 16 19 20 22 25
51 24 32 57 62 62 61 63 67 61 48 54 51 50 43 35 41 34 33 28 25 29 38 46 43 40 40 43 38 37 31 26 22 23 21 24 23 21 23 28 17 18 22 25 28
52 59 69 66 62 64 58 56 58 58 60 54 55 52 45 41 34 31 30 25 27 42 47 53 51 45 49 50 45 46 42 36 32 28 26 31 28 30 33 30 34 30 31 34 34
53 59 65 69 66 64 60 56 55 58 50 52 62 52 43 42 47 45 40 38 46 49 51 61 63 54 54 55 57 49 54 52 47 40 38 42 40 36 41 40 44 42 39 40 44
62 51 59 62 59 61 65 64 59 60 64 64 61 58 50 53 50 48 47 55 53 50 52 51 60 64 58 67 59 63 56 64 62 57 60 57 53 46 56 43 53 50 44 45 46
52 48 52 61 61 57 51 51 58 61 54 54 60 56 54 63 55 52 48 50 49 46 52 56 60 61 66 70 71 63 52 57 69 54 53 57 51 54 60 56 58 57 53 49 40
44 42 45 58 56 56 56 48 46 50 50 54 50 54 54 61 59 57 56 48 49 50 54 57 62 65 77 81 69 55 49 51 65 48 52 38 46 54 53 40 44 43 42 49 52
51 47 52 51 49 51 59 58 54 52 56 56 62 49 58 57 59 65 64 60 51 51 64 65 62 67 79 80 62 84 85 44 50 48 36 45 41 54 38 37 26 27 46 50 48
68 70 70 52 52 50 51 58 58 65 49 67 58 69 58 56 65 63 68 69 64 54 59 68 64 65 73 85 72 64 58 46 53 44 34 33 42 40 36 23 22 22 38 47 44
92 92 94 83 75 62 54 47 49 51 40 53 65 49 72 59 60 69 74 71 64 59 58 58 55 66 66 66 78 86 77 70 68 71 43 36 28 26 21 18 16 28 35 46 46
89 85 76 68 64 54 48 38 41 44 37 36 47 41 58 53 50 62 70 66 60 59 39 45 41 38 53 61 67 72 74 69 66 58 50 51 39 35 23 21 19 25 40 44 48
57 51 74 72 63 80 71 76 74 63 49 41 35 42 52 59 56 59 74 68 65 52 37 28 24 24 24 23 23 34 48 60 59 54 50 49 35 38 36 28 21 24 32 35 34
88 80 82 85 92 96 96 91 86 76 75 53 41 46 48 60 58 58 73 70 62 53 37 30 25 22 20 19 21 20 20 22 27 38 43 39 40 35 36 34 28 26 24 25 24
95 90 91 96 100 94 96 98 96 96 74 69 60 59 66 73 70 62 66 70 67 63 52 54 31 35 31 36 37 38 37 44 39 34 24 27 28 22 67 75 34 32 38 35 40
100 94 97 100 96 100 100 100 98 76 66 75 66 57 70 82 84 79 80 78 75 86 97 88 72 42 40 43 50 54 58 72 76 68 36 66 66 26 72 52 51 41 37 38 41
21 42 74 92 94 100 100 100 97 53 64 94 76 80 83 94 86 88 86 91 94 99 98 92 83 80 70 63 74 76 96 92 96 100 99 100 76 78 77 55 45 42 36 33 33
9 10 15 20 34 100 100 100 69 61 70 97 86 81 73 89 83 100 90 92 100 100 93 94 87 100 93 86 86 89 96 96 98 82 98 69 69 100 74 80 75 70 70 66 66
5 6 6 8 16 39 100 85 54 74 87 91 94 78 77 85 100 100 95 100 100 98 92 99 94 100 100 92 89 94 100 100 100 91 100 65 92 87 100 97 73 82 85 75 74
12 9 8 7 8 14 19 15 36 96 99 100 87 82 76 73 98 100 100 100 100 100 100 83 97 97 100 83 99 100 96 99 100 93 99 90 89 100 100 100 86 98 100 99 86
77 46 30 19 22 12 10 7 9 15 23 29 48 70 90 88 97 100 97 100 93 85 100 94 91 86 100 98 100 100 87 100 100 91 97 92 59 100 100 99 99 91 100 98 87
100 100 100 100 98 49 22 13 12 11 14 15 12 14 39 66 97 96 100 100 100 100 97 94 88 83 90 100 89 100 100 100 100 100 84 96 59 94 100 96 96 100 82 77 76
100 95 98 100 89 100 100 89 54 24 20 16 14 17 16 16 25 92 100 100 96 97 99 100 89 85 84 90 100 100 100 100 100 100 89 96 73 66 89 97 100 100 98 93 97
59 100 100 96 70 63 99 100 100 100 98 73 34 23 19 18 29 62 59 91 94 77 99 94 77 85 81 77 93 96 86 100 100 98 100 88 100 69 83 100 100 100 77 86 90
100 100 99 100 84 100 100 97 80 90 94 100 99 100 84 39 24 45 100 91 84 51 44 84 81 82 64 72 82 76 70 76 100 89 87 90 97 100 100 75 76 96 73 68 72
100 100 100 99 100 100 76 53 79 90 100 98 94 100 100 100 100 72 43 32 43 35 50 67 50 57 62 80 100 100 50 61 58 57 60 54 57 46 44 37 38 33 29 35 48

GFSSW_500_rhum_168.txt.gz
RH
59 45 20 19 33 38 30 39 45 44 37 21 19 24 35 31 32 43 28 22 16 21 22 20 13 9 14 15 12 9 9 9 17 71 71 67 56 11 22 26 22 16 25 24 31
65 63 63 42 36 36 48 50 51 46 43 45 35 33 35 43 47 46 40 34 29 30 32 29 30 30 26 22 23 24 27 22 55 29 69 18 13 20 17 19 15 16 18 28 32
58 56 54 64 52 41 38 39 55 62 60 59 56 55 52 50 50 45 43 38 33 33 30 25 22 26 33 28 25 27 26 26 25 22 21 18 18 15 17 18 20 18 18 22 20
50 51 54 58 56 44 37 41 56 57 60 59 62 60 54 55 50 47 47 42 38 35 30 25 24 32 38 40 36 34 31 33 32 30 27 22 20 19 25 25 26 22 21 22 22
50 48 49 49 59 55 55 59 52 53 54 55 56 57 59 53 53 49 46 39 34 31 28 26 41 43 42 46 45 42 41 43 39 36 35 30 27 26 30 31 38 29 29 38 33
57 55 54 53 55 59 57 55 56 61 55 55 52 52 53 48 55 46 42 42 44 37 38 42 52 43 47 52 47 47 44 44 48 43 47 46 43 44 40 37 40 37 43 48 47
57 58 59 56 58 61 60 60 58 58 65 58 59 51 46 65 61 53 47 50 51 42 40 44 46 51 47 48 52 52 55 53 49 52 55 64 60 52 56 63 59 51 60 59 52
63 57 60 56 51 57 60 50 45 49 55 59 54 44 38 59 59 64 54 48 49 57 49 40 38 48 50 48 47 51 59 54 60 55 51 59 56 63 64 76 51 50 57 60 59
71 67 60 63 58 49 46 48 46 44 42 46 55 36 38 40 54 58 65 66 60 54 50 51 43 44 54 54 48 57 62 69 58 54 78 56 42 42 72 69 43 38 55 62 51
80 81 67 65 62 61 52 50 53 40 37 37 41 34 45 47 49 46 59 69 65 59 58 60 51 43 55 59 52 64 78 85 68 52 63 52 43 38 47 52 55 42 42 42 28
66 68 72 74 78 73 75 68 68 57 51 54 41 32 37 41 50 44 52 50 60 56 57 60 51 49 58 58 56 59 65 71 66 58 48 58 43 39 33 36 38 35 33 30 27
68 66 68 72 72 75 76 80 62 69 50 50 50 41 38 38 28 30 52 51 51 47 50 54 38 46 54 54 60 52 58 66 77 78 67 52 48 44 40 28 25 26 22 21 19
52 58 61 64 65 68 70 64 69 57 42 37 41 39 39 38 31 29 46 42 48 54 51 47 46 55 48 50 51 47 54 60 60 67 70 67 59 62 59 48 32 29 26 30 27
58 53 52 49 48 56 50 50 48 46 36 33 36 34 42 45 40 38 40 44 40 44 69 54 59 56 52 45 42 42 42 41 49 55 54 68 47 65 72 60 52 54 47 35 28
83 76 80 74 65 63 63 73 65 69 59 40 36 35 39 50 49 49 51 52 46 52 81 48 63 59 53 46 31 32 27 27 27 25 27 33 51 40 66 65 73 70 48 68 51
96 93 96 91 90 83 94 95 94 93 68 64 64 62 66 61 61 57 58 58 61 63 74 70 80 79 64 54 38 30 24 22 21 20 24 25 40 23 36 46 58 52 58 93 91
98 97 97 93 93 94 100 100 98 78 63 63 76 75 62 61 62 64 63 64 73 75 79 89 77 87 75 78 67 32 31 34 36 34 35 35 54 32 49 78 61 79 71 81 97
59 62 51 56 55 73 98 99 94 47 60 85 100 100 86 74 83 87 83 72 75 91 93 82 71 71 79 83 80 80 61 58 58 48 46 53 65 62 99 99 98 100 87 67 78
23 26 25 24 24 26 42 69 39 40 51 80 100 98 100 98 92 99 99 100 100 98 94 77 75 98 88 98 89 74 83 79 84 77 78 62 59 67 99 99 98 97 100 94 89
7 8 8 10 13 21 33 26 20 22 26 85 100 99 91 92 100 100 88 96 100 92 93 94 99 96 100 89 100 87 99 100 99 89 87 60 63 74 87 98 81 84 98 97 94
10 9 8 7 24 62 40 11 8 9 28 90 100 100 90 100 100 100 100 100 100 77 96 96 98 80 100 82 98 100 98 100 100 100 99 98 66 96 100 100 100 99 98 100 100
31 26 24 32 60 68 66 20 10 6 9 16 78 90 100 91 90 96 100 100 94 97 73 89 90 100 100 100 100 100 100 100 100 93 91 88 64 100 98 99 91 100 100 100 100
100 100 94 92 91 72 66 63 42 22 10 13 39 98 95 100 100 98 100 99 100 96 100 99 91 97 92 100 90 100 100 97 99 100 98 98 60 94 96 98 100 100 98 98 97
100 100 100 100 98 99 100 100 93 80 49 24 14 54 100 90 70 35 70 100 100 100 100 94 85 79 69 70 79 89 100 98 99 92 95 91 79 90 100 100 98 100 100 100 100
73 66 93 100 93 90 100 99 97 88 99 100 95 31 20 52 24 86 99 100 78 100 93 96 100 93 91 76 72 92 98 96 96 80 100 99 100 83 99 100 100 100 99 95 99
57 100 77 69 77 93 82 93 96 87 92 100 100 100 100 99 89 63 100 100 95 82 92 81 67 83 85 72 80 79 81 74 100 100 100 98 79 64 92 100 100 100 100 97 83
25 55 99 60 60 66 54 90 95 100 100 100 94 89 97 100 96 95 100 99 86 100 69 48 56 51 48 45 68 92 43 59 81 92 86 92 90 77 100 100 100 96 89 78 100

GFSSW_500_rhum_171.txt.gz
RH
72 63 61 64 56 48 28 26 39 42 36 40 40 41 39 25 20 28 29 38 40 34 21 19 20 14 7 7 8 9 9 8 11 16 27 52 61 63 63 36 20 16 11 13 19
70 69 66 63 59 57 61 51 40 40 40 42 46 50 44 46 43 38 46 48 46 42 34 30 28 25 29 24 17 16 18 17 14 13 13 25 26 26 36 25 24 20 15 14 16
69 67 56 53 52 53 54 53 54 43 41 38 49 56 58 54 57 54 52 49 44 44 41 36 34 28 24 24 24 25 25 26 26 26 26 25 31 44 37 28 22 20 17 18 19
57 55 59 50 48 51 49 52 52 46 38 38 39 52 54 54 51 50 52 52 51 47 45 40 36 31 25 22 30 27 30 27 28 30 25 27 32 43 40 28 25 24 23 22 24
59 57 58 56 54 48 45 47 58 56 50 48 38 40 53 52 55 49 50 52 53 48 43 39 33 31 25 29 42 46 41 41 34 32 32 35 40 36 34 30 29 28 31 27 28
63 59 57 54 52 52 56 53 51 57 58 53 42 38 38 54 52 48 44 48 52 43 41 45 43 34 33 43 36 42 46 43 40 43 43 40 42 45 48 44 44 42 43 43 42
63 59 61 57 58 54 60 61 54 48 51 51 44 38 35 58 53 55 55 54 58 47 44 48 50 44 40 35 35 35 38 47 48 50 53 57 49 45 55 60 62 58 57 56 59
62 63 60 62 52 55 61 64 60 47 42 34 41 27 46 46 40 52 52 52 50 56 52 50 46 44 43 38 34 30 32 36 52 54 54 62 45 50 54 65 57 51 50 53 52
70 65 64 65 66 57 58 60 57 52 42 37 36 29 29 37 37 38 41 51 46 48 48 54 51 50 44 47 35 36 28 41 48 55 57 58 45 41 47 49 46 36 34 48 50
69 74 60 55 52 55 62 69 64 55 50 47 42 38 42 48 39 32 34 41 52 49 39 47 43 37 48 47 36 43 38 42 43 53 50 52 51 49 42 42 44 38 36 41 41
65 62 67 60 57 59 56 60 52 51 55 56 53 52 60 60 50 47 44 39 33 31 32 38 31 29 36 40 38 39 38 38 49 58 52 51 52 56 53 46 44 40 32 34 34
64 55 51 48 48 50 50 51 45 49 44 46 46 40 43 45 42 42 43 41 39 35 35 32 24 30 37 43 36 31 28 28 35 57 65 66 54 56 52 57 51 49 46 36 28
52 50 48 43 40 43 48 44 45 44 38 33 40 34 35 36 35 35 41 40 38 37 38 34 31 34 33 40 46 37 41 38 30 45 57 62 34 47 63 74 75 65 60 60 54
66 65 70 66 64 61 54 69 69 65 56 42 46 38 43 45 37 41 40 41 41 39 47 38 38 40 42 39 52 40 52 45 42 46 40 51 30 37 46 56 72 77 72 64 61
87 86 86 85 83 81 82 87 85 74 66 57 54 49 53 54 49 48 55 55 52 51 58 32 49 54 51 61 72 50 60 58 52 44 39 33 39 28 34 38 54 61 66 80 61
97 97 92 92 95 84 98 94 94 85 52 54 56 59 60 53 50 46 45 51 53 54 60 33 55 54 52 58 67 66 63 59 51 44 41 37 46 29 31 33 36 40 50 54 42
100 98 100 93 97 94 97 100 99 65 55 58 71 69 61 55 59 55 49 52 57 60 53 55 41 51 74 76 80 94 85 94 81 63 54 47 46 34 35 38 40 54 60 66 69
92 86 79 76 73 69 62 74 82 50 54 73 100 100 89 76 78 72 78 66 73 78 69 57 43 54 72 75 70 86 96 90 72 72 73 59 51 49 58 62 66 96 88 87 93
69 62 59 40 40 48 37 54 64 56 55 54 82 100 95 80 78 100 100 96 100 100 100 98 52 65 68 76 74 60 69 71 84 86 87 57 59 73 78 84 98 100 99 93 97
21 24 35 14 14 18 23 24 29 31 30 34 53 79 99 83 86 99 96 87 100 93 99 98 91 77 97 86 86 89 91 96 100 97 91 60 66 82 90 89 93 94 98 99 100
10 9 12 10 10 10 15 9 9 10 14 20 26 52 78 58 85 81 100 92 94 90 86 100 99 99 100 87 94 100 99 100 100 100 96 84 81 100 98 100 100 98 95 96 100
64 54 54 26 35 74 61 26 33 17 16 13 13 18 60 93 98 100 100 98 98 98 83 86 85 81 100 100 100 95 100 98 100 100 100 100 100 100 100 100 93 100 99 100 100
100 98 97 96 100 94 71 65 60 54 42 39 26 25 35 52 86 100 100 100 100 100 98 99 92 62 53 59 77 81 98 100 99 100 100 100 92 100 100 87 98 94 90 86 89
70 87 99 100 94 93 100 100 99 90 63 61 56 57 50 37 28 48 80 100 100 100 100 97 86 87 64 65 72 100 100 98 100 98 98 96 83 91 92 100 100 96 100 100 100
24 29 50 79 100 93 100 100 96 97 99 100 97 84 86 62 35 38 84 76 76 68 72 98 90 95 88 94 79 99 100 100 100 99 97 90 99 84 100 100 100 95 90 100 98
24 23 30 30 32 66 99 100 92 86 100 98 98 91 97 100 98 89 88 74 64 34 66 55 30 91 86 79 66 58 51 45 54 68 68 75 58 60 97 100 100 100 96 88 82
18 20 30 46 91 100 70 67 94 98 99 95 85 100 94 97 98 100 100 100 92 87 72 100 100 98 56 58 76 94 34 84 69 66 66 67 57 83 100 100 100 100 94 100 78

GFSSW_500_rhum_174.txt.gz
RH
70 67 76 77 73 64 61 58 52 41 36 42 43 42 42 42 40 40 31 24 25 27 40 42 27 16 16 14 10 8 8 11 10 9 8 8 10 22 24 12 16 15 15 16 15
81 80 78 72 70 68 62 56 50 49 46 52 47 41 40 41 51 52 48 48 47 48 49 46 39 31 27 22 16 12 9 17 17 13 10 9 9 10 19 18 12 19 22 21 19
71 75 76 74 69 66 62 52 46 46 41 43 49 42 38 41 41 53 55 56 54 51 48 44 44 36 35 31 31 27 26 26 24 21 19 17 15 15 21 22 25 25 24 24 23
63 62 61 60 58 55 57 52 49 44 40 38 41 43 39 46 44 39 49 52 52 50 52 50 47 44 38 36 32 27 21 23 28 28 26 22 24 27 27 24 24 26 27 28 27
58 63 61 63 63 58 52 53 49 46 39 41 41 39 46 47 56 36 40 49 52 53 52 53 50 42 41 37 33 29 28 29 34 37 36 32 29 32 37 40 39 36 32 33 37
64 60 61 59 59 62 57 54 55 48 45 42 46 44 41 47 42 42 46 49 45 47 48 50 47 42 41 42 33 34 39 32 33 31 43 49 39 39 40 44 45 44 39 42 46
64 64 67 59 55 57 53 51 49 51 46 36 46 43 48 57 31 35 36 43 53 47 53 52 50 43 37 42 44 43 34 30 30 41 39 46 44 36 42 40 42 42 40 38 44
69 69 61 66 64 59 55 57 52 44 43 35 37 39 48 47 39 34 38 44 35 42 42 44 43 43 42 42 40 35 29 24 49 43 43 32 25 43 42 34 38 40 35 28 32
71 73 72 67 60 63 58 56 50 43 40 41 42 39 48 51 43 39 35 40 33 29 36 40 34 30 33 38 37 41 36 35 30 38 42 34 26 37 52 44 41 39 38 35 32
74 70 74 70 62 61 62 54 55 45 38 42 40 39 47 58 57 52 53 50 46 46 41 37 28 26 31 28 24 27 25 26 30 44 34 35 29 36 42 42 44 41 40 41 40
84 77 77 75 71 64 66 62 49 54 48 44 37 36 44 47 44 46 46 43 45 45 43 42 37 29 35 30 26 26 24 23 25 30 29 27 24 29 31 36 36 40 45 46 47
82 68 70 78 83 75 60 61 59 51 43 41 41 40 41 41 31 40 45 39 36 34 34 33 32 35 37 36 33 31 28 25 25 33 35 32 22 23 28 36 44 56 54 59 56
84 64 57 53 56 60 79 68 56 52 47 44 45 41 44 49 44 49 55 50 48 45 42 37 34 33 32 35 36 33 30 30 29 37 36 35 24 28 41 51 61 65 72 60 60
88 79 67 68 74 76 79 88 76 64 55 46 52 50 52 55 51 53 58 52 48 47 51 40 40 42 41 37 47 35 50 42 40 41 35 49 29 33 44 56 58 66 76 73 57
84 84 92 93 89 89 91 87 86 79 69 60 56 60 64 62 55 54 51 46 40 43 45 32 39 46 45 50 57 39 48 51 51 54 55 40 54 31 39 41 43 50 57 58 50
67 68 71 73 73 78 92 92 92 83 55 65 69 71 63 54 48 43 46 46 45 43 36 27 38 34 32 39 44 49 50 57 66 64 69 47 76 42 49 53 54 52 50 51 38
93 85 80 74 83 80 86 100 92 69 57 64 68 64 56 57 52 47 48 52 59 57 46 38 30 34 40 40 46 58 68 71 76 86 69 72 88 57 62 64 52 50 46 40 38
100 100 100 100 99 99 100 100 80 50 49 75 93 92 85 76 75 89 73 63 77 71 56 49 39 43 54 50 32 62 93 93 97 100 94 79 94 63 76 72 66 66 58 61 75
99 96 100 100 100 96 100 98 71 66 64 70 86 100 98 93 76 83 78 69 97 92 75 69 38 55 61 44 46 42 68 86 100 100 100 66 62 71 81 76 63 69 69 78 96
88 89 87 100 98 99 99 90 72 65 67 64 58 62 75 86 100 97 100 100 100 97 100 100 76 72 64 71 72 56 55 78 84 100 87 70 67 68 73 98 92 76 69 76 81
20 23 41 35 31 27 46 60 50 49 33 28 30 34 46 50 73 100 100 100 100 100 100 97 92 73 98 100 96 98 82 93 93 90 85 79 83 70 69 71 76 74 81 83 99
26 21 22 16 15 13 14 14 16 13 13 11 11 10 14 24 31 57 98 100 100 100 96 87 84 73 82 96 100 100 94 100 100 100 97 99 92 64 78 98 100 100 96 100 100
100 100 97 97 95 75 68 77 72 52 39 41 42 32 26 30 48 27 42 85 100 100 100 100 100 75 62 92 100 98 100 100 100 100 100 99 100 100 100 100 99 100 100 100 100
59 86 90 96 94 100 100 100 100 82 76 87 77 75 67 62 75 45 32 66 100 100 100 100 100 97 77 75 100 96 98 100 100 99 98 95 99 100 100 100 100 100 100 81 93
16 20 26 28 44 54 97 100 100 97 100 100 100 95 85 74 79 76 55 46 35 46 98 98 81 70 71 64 71 84 75 67 71 73 98 95 98 100 100 100 100 98 100 95 98
21 19 20 18 27 29 38 88 93 90 100 100 100 92 100 100 97 100 97 87 77 81 40 46 74 89 96 89 72 58 44 45 45 81 100 97 94 100 100 100 100 90 70 78 94
28 27 28 26 30 38 32 54 67 91 100 99 100 100 100 98 100 100 100 100 100 100 96 79 64 72 60 48 44 34 22 34 55 100 99 100 76 82 87 75 62 55 64 48 58

GFSSW_500_rhum_177.txt.gz
RH
56 55 65 73 72 76 73 77 69 61 54 53 44 39 43 43 38 45 45 42 38 30 26 25 25 37 42 27 13 13 12 10 9 9 9 9 9 10 10 12 12 11 11 11 12
76 62 71 81 80 78 73 74 70 60 54 43 45 52 43 52 45 41 41 48 49 48 47 48 47 48 46 34 19 19 18 14 9 11 10 9 8 9 11 10 11 13 14 19 22
83 84 81 76 69 70 67 68 64 54 46 42 39 41 40 42 50 40 45 43 45 50 54 54 51 47 46 43 34 30 32 27 26 19 13 17 20 17 15 15 15 20 25 26 25
79 79 71 62 60 56 53 51 53 49 42 41 42 38 37 36 43 38 49 48 42 41 49 51 50 50 48 45 41 34 35 29 26 26 24 20 20 22 27 27 25 28 28 27 29
67 61 58 58 57 59 59 58 52 49 45 46 45 45 43 43 45 36 40 45 44 40 44 46 51 49 51 51 47 42 38 36 31 24 21 28 33 34 32 34 34 29 27 29 33
64 63 58 54 59 59 59 55 56 49 43 41 44 47 49 51 41 40 41 42 39 37 45 40 44 46 47 40 41 42 41 35 30 28 34 40 39 28 32 34 37 35 32 30 31
60 57 56 58 54 61 62 59 55 47 46 40 40 43 48 56 42 38 39 44 47 39 35 37 35 30 40 47 42 41 40 40 38 36 31 30 23 20 24 23 29 36 37 35 33
68 63 61 60 63 59 59 58 56 47 48 40 40 39 44 54 49 44 41 36 39 47 46 39 31 26 27 32 36 40 36 36 49 39 28 22 13 24 32 27 25 30 35 34 38
78 84 80 76 70 64 67 61 53 52 47 48 39 41 47 48 54 57 50 43 39 38 40 38 30 26 23 32 28 26 25 30 35 38 34 28 21 19 27 21 21 25 31 38 41
81 83 80 79 75 70 68 65 64 59 56 56 50 45 46 54 49 47 53 55 54 52 50 50 43 37 38 36 30 28 23 22 22 32 24 22 19 19 22 19 18 18 19 24 26
90 82 78 72 73 70 72 66 63 61 58 56 48 49 56 52 50 46 47 46 44 42 40 37 35 33 37 37 35 34 33 32 30 30 24 21 20 20 20 18 16 16 21 20 17
95 87 82 76 76 73 69 65 71 57 47 48 52 51 56 56 38 47 46 43 42 41 42 42 38 38 34 32 31 30 29 29 30 34 34 32 24 23 23 22 22 22 21 20 19
86 92 94 94 83 79 88 80 72 64 53 41 57 46 56 55 48 51 56 50 46 45 50 48 44 47 47 45 41 38 34 33 33 39 38 35 25 27 29 29 29 27 26 27 30
100 94 89 93 85 78 80 78 71 67 62 46 52 55 58 64 54 51 59 53 46 47 54 48 43 44 41 36 43 35 44 44 40 41 35 53 26 31 34 35 34 40 42 44 44
98 96 83 80 80 82 73 72 63 59 60 55 56 57 59 58 55 57 60 58 52 50 48 41 40 40 39 37 40 29 43 42 43 45 47 34 54 22 36 39 45 51 61 60 64
82 83 90 75 64 63 61 60 59 62 50 55 60 65 65 63 62 54 50 52 48 43 39 36 37 33 30 29 31 34 35 45 52 54 57 30 78 21 34 37 45 61 68 70 63
60 65 65 55 57 74 84 92 73 54 53 58 59 56 64 70 59 48 48 52 51 48 44 41 37 38 38 34 39 35 37 40 38 45 33 35 80 30 37 47 47 66 75 75 86
72 83 86 89 76 73 92 100 77 43 51 70 84 89 81 86 78 73 65 67 62 63 51 52 42 51 50 46 40 50 68 60 52 45 45 49 52 40 56 49 52 65 75 80 83
20 27 50 100 90 85 100 100 70 68 77 84 100 100 100 96 88 94 96 93 90 79 75 66 50 58 61 54 51 57 66 71 88 69 74 42 40 66 67 46 53 63 70 67 70
34 45 60 100 100 100 100 97 85 75 84 88 96 100 100 100 100 100 100 100 100 100 100 99 70 62 88 75 78 69 56 66 83 78 67 59 67 74 74 80 59 56 61 66 66
79 76 66 63 72 87 96 91 99 89 100 100 100 97 86 78 95 100 100 100 100 100 100 100 100 72 77 100 100 100 79 93 89 100 97 86 79 70 67 69 69 67 66 64 69
30 32 37 31 26 24 21 22 29 42 43 32 32 51 52 43 36 39 55 67 82 100 100 98 100 92 79 100 100 100 100 100 98 100 97 99 100 74 68 84 92 85 77 67 67
98 97 84 73 62 53 51 43 36 24 20 16 20 22 20 21 21 16 14 18 31 64 97 100 100 99 92 84 76 86 99 100 100 100 100 100 100 100 100 98 100 100 92 100 100
100 100 96 100 100 100 100 100 100 97 97 97 91 77 60 51 52 41 38 24 22 34 89 99 100 100 82 56 85 82 87 87 98 100 100 98 100 100 100 100 100 100 100 100 100
42 42 44 43 44 45 60 89 100 100 100 100 99 93 90 96 91 86 76 65 64 66 59 60 93 97 98 98 99 83 87 100 98 86 98 92 90 97 99 93 100 100 100 100 100
23 23 22 20 24 29 29 33 45 68 95 100 100 95 100 100 100 89 100 96 76 82 83 90 95 85 60 64 84 100 91 77 74 81 94 75 70 97 95 92 100 100 99 98 99
30 35 36 28 30 32 28 29 45 45 58 83 100 100 100 100 100 99 95 97 100 98 100 99 98 100 99 89 71 83 64 85 100 92 52 54 46 41 73 86 75 82 75 89 96